Location: downtown San Diego
(32.7310°N, 117.1990°W)
Time: 14:50:46
(UTC-08:00)

NOSS 3-1 (C) - Pass Details

Date: 12 July 2018
Orbit: 793 x 1416 km, 63.4° (Epoch: 08 November)

Event Time Altitude Azimuth Distance (km) Brightness Sun altitude
Rises 23:35:43 0° 326° (NNW) 4,122 7.8 -32.3°
Reaches altitude 10° 23:38:23 10° 324° (NW) 3,231 7.0 -32.5°
Maximum altitude 23:46:18 69° 244° (WSW) 1,439 4.2 -33.1°
Enters shadow 23:46:34 68° 232° (SW) 1,446 4.1 -33.1°
